Regional Weather Roundup
Issued by NWS Charleston, SC

Current Version | Previous Version | Graphics & Text | Print | Product List | Glossary On
Versions: 1 2 3 4 5 6 7 8 9 10 11 12 13 14 15 16 17 18 19 20 21 22 23 24 25 26 27 28 29 30 31 32 33 34 35 36 37 38 39 40 41 42 43 44 45 46 47 48 49 50
000
ASUS42 KCHS 232125
RWRCHS

REGIONAL WEATHER ROUNDUP
NATIONAL WEATHER SERVICE CHARLESTON SC
500 PM EDT THU OCT 23 2014

NOTE: "FAIR" INDICATES FEW OR NO CLOUDS BELOW 12,000 FEET WITH NO
SIGNIFICANT WEATHER AND/OR OBSTRUCTIONS TO VISIBILITY.

NOT ALL STATIONS ARE QUALITY CONTROLLED BY THE NATIONAL
WEATHER SERVICE. USE DATA WITH CAUTION...ESPECIALLY
DEWPOINT OBSERVATIONS.

SCZ027-030-031-034>040-042>050-232200-
...SOUTH CAROLINA...

CITY           SKY/WX    TMP DP  RH WIND       PRES   REMARKS
N CHARLESTON   SUNNY     71  43  36 NW7       29.98F
WATERFRONT PRK   N/A     70 N/A N/A W6          N/A
FORT JOHNSON   NOT AVBL
JOHNS ISLAND   CLEAR     70  46  43 W8        29.99S
PINOPOLIS      NOT AVBL
MONCKS CORNER  FAIR      70  50  49 CALM      29.98S
SUMMERVILLE    FAIR      70  45  40 W5        29.99F
BEAUFORT MCAS  SUNNY     71  45  39 N9        30.00S
BEAUFORT ARPT  FAIR      70  48  46 NW7       29.99S
HILTON HEAD IS SUNNY     68  48  49 NW5       30.00F
GEORGETOWN     NOT AVBL
WALTERBORO     CLEAR     70  36  28 NW7       29.99F
ORANGEBURG     SUNNY     70  39  32 NW7       29.99F
BARNWELL       FAIR      72  39  30 NW6       30.00S
AIKEN          FAIR      70  45  40 W5        30.03S
MANNING        FAIR      70  43  37 NW6       29.98S
KINGSTREE      NOT AVBL
COLUMBIA       SUNNY     71  37  28 NW8       29.98F
SUMTER         SUNNY     69  44  40 NW5       29.97S
FLORENCE       SUNNY     70  40  33 NW9       29.97S
MYRTLE BEACH   SUNNY     70  43  37 NW9       29.96S
N MYRTLE BEACH SUNNY     68  43  40 W8        29.95S

$$

GAZ063-065-086>088-099>101-113>116-118-119-134-136>141-150-232200-
...GEORGIA...

CITY           SKY/WX    TMP DP  RH WIND       PRES   REMARKS
SAVANNAH ARPT  SUNNY     72  44  36 NW8       30.00S
HUNTER AAF     SUNNY     71  47  41 NW7       29.98S
FORT STEWART   SUNNY     72  45  38 N5        29.99S
STATESBORO     NOT AVBL
SYLVANIA       CLEAR     76  49  38 NW5       30.01S
CLAXTON        FAIR      72  45  37 NW3       30.01R
THOMSON        SUNNY     71  51  50 W5        30.06S
AUGUSTA-BUSH   SUNNY     72  36  26 N8        29.99F
AUGUSTA-DANIEL SUNNY     72  38  29 N8        30.01S
SWAINSBORO     FAIR      73  45  35 MISG      30.01S
VIDALIA        SUNNY     72  45  37 NW3       30.01S
ALMA           SUNNY     73  41  31 VRB3      30.00S
WAYCROSS       SUNNY     75  47  37 NW6       30.00S
JESUP          FAIR      73  45  35 W6        30.00S
BRUNSWICK      SUNNY     72  43  35 N5        30.01S
SAINT SIMONS   SUNNY     69  49  48 E7        29.99F

$$

SCZ027-028-034-036>038-045-046-048>050-GAZ119-141-232200-
...LAKE AND SUPPLEMENTAL COASTAL OBSERVATIONS...

STATION/POSITION TIME  TEMP    WIND        PRES    WAVE   SWELL
                       AIR SEA DIR/SP/G            HT/PER HT/PER/DIR
                 (UTC) (F)     (DEG/KT/KT) (MB)    (FT/S) (FT/S/D)
UPR LAKE MARION  NOT AVBL
WINYAH BAY       2000   67     300/  6     1014.0S
LAKE MURRAY      2000   71      CALM  /  6 1014.9F
ACE BASIN NERRS  2000   70     300/  2     1016.0S
FORT PULASKI     2100   67      50/  5/  5 1016.0R
SAPELO ISLAND    NOT AVBL

$$

ANZ835-935-AMZ111-154-330-350-352-354-374-450-454-472-232200-
...C-MAN AND BUOY OBSERVATIONS...

STATION/POSITION TIME  TEMP    WIND        PRES    WAVE   SWELL
                       AIR SEA DIR/SP/G            HT/PER HT/PER/DIR
                 (UTC) (F)     (DEG/KT/KT) (MB)    (FT/S) (FT/S/D)
FOLLY BEACH CMAN 2100   68     290/  5/  7 1015.8F
BUOY 41004       2100   65 78  280/ 10/ 14 1015.0F   2/ 5   2/ 5
BUOY 41008       2100   66 75   10/  4/  6 1016.2S   2/ 5   2/ 50/ 5
5E ST. MARYS GA  2100      76                N/A     3/ 6
FRYING PAN BUOY  2100   65 74  280/ 16/ 19 1014.6F   3/ 4   2/ 90/13
BUOY 41025       2100   65     290/ 17/ 21 1011.1S   5/ 6   2/ 30/ 9
CAPE LOOKOUT NC  2100   66     290/ 13/ 15 1011.9S
BUOY 41002       1951   71 78  290/ 14/ 17 1013.7R   8/ 8   7/340/ 8
BUOY 41010       2100   74 81   20/ 10/ 14 1014.4F   3/ 7   3/ 7
BUOY 41012       NOT AVBL
ST AUGUSTINE FL  2100   69      40/  9/ 12 1016.0S
CAPERS NEARSHORE NOT AVBL
FRIPP NEARSHORE  NOT AVBL


$$



USA.gov is the U.S. government's official web portal to all federal, state and local government web resources and services.